SL-19 R/B, 35501

Orbit data source: Space-Track

SL-19 R/B, 35501 is space debris in LEO originally from a launch on Mon, 06 Jul 2009 UTC launched from the Plesetsk Missile And Space Complex (PKMTR). Debris objects in space refer to the collection of defunct objects orbiting the Earth. Examples of debris include non-operational satellites, rocket bodies, and fragments generated from explosions, collisions, or faulty payload assembly.

Loading next visibility...
SL-19 R/B details
Identifier
35501, 2009-036D
Orbit
LEO
Last TLE update8 hours ago
Origin
Flag of CISKVR (CIS)
ManufacturerKhrunichev
MissionSpacecraft
Bus & MotorBRIZ, S5.92
Mass2,370 kg wet, 2,370 kg dry
Launch date (UTC)
2009-07-06 (15 years ago)
Launch vehicleUnknown
Launch site
Plesetsk Missile And Space Complex (PKMTR)
Object type
Payload
Rocket body
Debris
Shape & HBRHex Cyl + 1 Rod, 4.1 m
Radar Cross Section10.190 m², Large (>1 m²)

Expand to show TLE details & history

TLE from 8 hours ago
0 SL-19 R/B
1 35501U 09036D   24361.56020372  .00000052  00000-0  16870-3 0  9995
2 35501  82.4918 185.1996 0197068 100.9704 315.4981 12.76642467721207
Epoch: 2024-12-26T13:26Z
Definitive object data (Epoch: 2024-12-26T13:26:41.601Z)
Latitude54.25991°
Longitude-101.51237°
Altitude1,256.669 km
Speed7.282 km/s
True Right ascension13h 02m 47s
True Declination54° 06' 27"
Sunlit
Object was in daylight at TLE epoch
Visualization TLE readout
Latitude78.49952°
Longitude-72.09516°
Altitude1,223.811 km
Speed7.317 km/s
Apparent Right ascension09h 40m 11s
Apparent Declination34° 16' 07"
Sunlit
Object is in daylight
Visualization observer readout
Local Sidereal Time20:29:01
Azimuth344.913° N
Elevation-14.017°
Doppler factor1
Orbital elements
Apogee altitude1,504.643 km
Perigee altitude1,199.959 km
Semi-major axis7,730.438 km
Eccentricity0.0197068
Inclination82.4918°
RAAN185.1996°
Arg. of periapsis100.9704°
True anomaly313.88716°
Mean anomaly315.4981°
Eccentric anomaly314.69546°
Mean motion3.19328 °/min
BSTAR0.0001687
Orbital period112.74 mins
Loading maneuver chart data...
Loading historical data...
Loading historical data...
Loading historical data...
Loading historical data...
Loading historical data...
Loading historical data...
Loading historical data...
Other satellites on launch #36 in the year 2009 (2009-07-06 UTC)

SL-19 R/B Visibility forecast

Observer location: undefined°, undefined

Span
Click to sort rows by Start time (UTC) header in descending order
Start Az.
Max El. time (UTC)
Max El. Az.
Max El.
End time (UTC)
End Az.
11 mins2024-12-26 23:10:05.109Z16.501° NNE2024-12-26 23:16:05.109Z77.289° E25.644°2024-12-26 23:21:05.109Z124.536° SE
12 mins2024-12-27 01:04:05.109Z337.197° NNW2024-12-27 01:10:05.109Z257.153° W37.173°2024-12-27 01:16:05.109Z199.075° SSW
10 mins2024-12-27 11:52:05.109Z126.032° SE2024-12-27 11:56:05.109Z87.985° E23.354°2024-12-27 12:02:05.109Z33.207° NE
13 mins2024-12-27 13:43:05.109Z205.999° SW2024-12-27 13:50:05.109Z295.887° NW39.69°2024-12-27 13:56:05.109Z357.616° N
|